Station ESPP4 - 9752695 - Esperanza, Viequez Island, PR Image indicating link to RSS feed of recent meteorological observations for station ESPP4


Conditions at ESPP4 as of
(5:48 am AST)
0948 GMT on 04/14/2024:
     

Click on the graph icon in the table below to see a time series plot of the last five days of that observation.

5-day plot - Wind Direction Wind Direction (WDIR):NNE ( 20 deg true )
5-day plot - Wind Speed Wind Speed (WSPD): 2.9 kts
5-day plot - Wind Gust Wind Gust (GST): 4.1 kts
5-day plot - Air Temperature Air Temperature (ATMP): 75.6 °F
5-day plot - Water Temperature Water Temperature (WTMP): 81.1 °F
5-day plot - Wind Speed at 10 Meters Wind Speed at 10 meters (WSPD10M): 3.9 kts
5-day plot - Wind Speed at 20 Meters Wind Speed at 20 meters (WSPD20M): 3.9 kts
5-day plot -  Wind Speed, Wind Gust and Atmospheric Pressure Combined plot of Wind Speed, Gust, and Air Pressure
NOS Water Level Observation Network Water Level
Previous observations
TIME
(AST)
5-day plot - Wind Direction
WDIR
 
5-day plot - Wind Speed
WSPD
kts
5-day plot - Wind Gust
GST
kts
5-day plot - Wave Height
WVHT
ft
5-day plot - Dominant Wave Period
DPD
sec
5-day plot - Average Wave Period
APD
sec
5-day plot - Mean Wave Direction
MWD
 
5-day plot - Atmospheric Pressure
PRES
in
5-day plot - Pressure Tendency
PTDY
in
5-day plot - Air Temperature
ATMP
°F
5-day plot - Water Temperature
WTMP
°F
5-day plot - Dew Point
DEWP
°F
5-day plot - Salinity
SAL
psu
5-day plot - Visibility
VIS
nmi
5-day plot - Tide (above MLLW)
TIDE
ft
2024-04-14 05:42 am N 2.9 4.1------ 75.7 81.1----
2024-04-14 05:36 amNNE 1.9 4.1------ 75.7 81.1----
2024-04-14 05:30 amNNE 2.9 4.1----29.94-- 81.1----
2024-04-14 05:24 amNNE 2.9 4.1----29.94-- 81.1----
2024-04-14 05:18 amNNE 2.9 4.1----29.94- 75.7 81.1----
2024-04-14 05:12 amNNE 2.9 4.1----29.94- 75.9 81.1----
2024-04-14 05:06 amNNE 1.9 5.1----29.94- 75.7 81.1----
2024-04-14 05:00 amNNE 2.9 4.1----29.94+0.00 75.6 81.1----
2024-04-14 04:54 am N 2.9 5.1----29.94- 75.4 81.1----
2024-04-14 04:48 amNNE 1.9 4.1----29.94- 75.0 81.1----
2024-04-14 04:42 am N 2.9 5.1----29.93- 74.8 81.1----
2024-04-14 04:36 am N 1.9 4.1----29.93- 74.8 81.1----
2024-04-14 04:30 amNNE 1.9 4.1----29.93- 74.5 81.3----
2024-04-14 04:24 amNNE 2.9 4.1----29.93- 74.5 81.3----
2024-04-14 04:18 amNNE 1.9 2.9----29.93- 74.3 81.3----
2024-04-14 04:12 amNNE 1.9 4.1----29.93- 74.3 81.3----
2024-04-14 04:06 amNNE 1.9 4.1----29.93- 74.3 81.3----
2024-04-14 04:00 amNNE 1.9 2.9----29.93-0.04 74.3 81.3----
2024-04-14 03:54 am NE 1.9 2.9----29.93- 74.3 81.3----
2024-04-14 03:48 amNNE 1.9 2.9----29.93- 74.3 81.3----
2024-04-14 03:42 amNNE 1.9 2.9----29.93- 74.5 81.5----
2024-04-14 03:36 amNNE 2.9 4.1----29.93- 74.5 81.5----
2024-04-14 03:30 amNNE 2.9 4.1----29.93- 74.3 81.5----
2024-04-14 03:24 amNNE 2.9 4.1----29.93- 74.3 81.5----
2024-04-14 03:18 amNNE 2.9 4.1----29.93- 74.5 81.5----
2024-04-14 03:12 amNNE 2.9 4.1----29.93- 74.3 81.5----
2024-04-14 03:06 amNNE 2.9 4.1----29.93- 74.3 81.5----
2024-04-14 03:00 amNNE 2.9 4.1----29.93-0.07 74.3 81.5----
2024-04-14 02:54 amNNE 1.9 2.9----29.93- 74.5 81.5----
2024-04-14 02:48 amNNE 1.9 4.1----29.93- 74.5 81.5----
2024-04-14 02:42 amNNE 2.9 4.1----29.93- 74.5 81.5----
2024-04-14 02:36 am NE 1.9 5.1----29.93- 74.5 81.5----
2024-04-14 02:30 amNNE 2.9 5.1----29.93- 74.5 81.7----
2024-04-14 02:24 amNNE 2.9 5.1----29.94- 74.5 81.7----
2024-04-14 02:18 amNNE 2.9 5.1----29.94- 74.5 81.7----
2024-04-14 02:12 amNNE 2.9 5.1----29.94- 74.5 81.7----
2024-04-14 02:06 amNNE 2.9 4.1----29.94- 74.5 81.7----
2024-04-14 02:00 amNNE 2.9 4.1----29.95-0.07 74.5 81.7----
2024-04-14 01:54 amNNE 2.9 4.1----29.95- 74.7 81.7----
2024-04-14 01:48 amNNE 2.9 4.1----29.95- 74.8 81.7----
2024-04-14 01:42 am N 2.9 5.1----29.95- 75.0 81.7----
2024-04-14 01:36 amNNE 2.9 4.1----29.95- 75.2 81.7----
2024-04-14 01:30 amNNE 2.9 5.1----29.96- 75.4 81.7----
2024-04-14 01:24 amNNE 2.9 5.1----29.96- 75.4 81.7----
2024-04-14 01:18 am NE 2.9 6.0----29.96- 75.4 81.7----
2024-04-14 01:12 am NE 2.9 5.1----29.96- 75.2 81.7----
2024-04-14 01:06 am NE 2.9 5.1----29.97- 75.0 81.7----
2024-04-14 01:00 amNNE 2.9 5.1----29.97-0.06 74.8 81.7----
2024-04-14 12:54 amNNE 2.9 4.1----29.97- 75.0 81.7----
2024-04-14 12:48 am NE 2.9 4.1----29.98- 75.0 81.7----
2024-04-14 12:42 amNNE 2.9 5.1----29.98- 75.0 81.7----
2024-04-14 12:36 amNNE 2.9 5.1----29.98- 75.2 81.7----
2024-04-14 12:30 amNNE 2.9 5.1----29.99- 75.4 81.9----
2024-04-14 12:24 amNNE 4.1 6.0----29.99- 75.6 81.9----
2024-04-14 12:18 am NE 2.9 5.1----29.99- 75.4 81.9----
2024-04-14 12:12 am NE 2.9 5.1----29.99- 75.0 81.9----
2024-04-14 12:06 am NE 2.9 4.1----30.00- 75.0 81.9----
2024-04-14 12:00 amNNE 2.9 4.1----30.00-0.03 75.0 81.9----
2024-04-13 11:54 pmNNE 2.9 5.1----30.00- 74.8 81.9----
2024-04-13 11:48 pmNNE 2.9 4.1----30.00- 75.0 81.9----
2024-04-13 11:42 pmNNE 1.9 2.9----30.00- 74.8 82.0----
2024-04-13 11:36 pmNNE 1.9 2.9----30.01- 74.7 82.0----
2024-04-13 11:30 pm NE 1.9 2.9----30.01- 74.7 82.0----
2024-04-13 11:24 pmNNE 1.9 2.9----30.01- 74.8 82.0----
2024-04-13 11:18 pmNNE 1.9 2.9----30.01- 74.8 82.0----
2024-04-13 11:12 pm N 1.9 2.9----30.01- 74.7 82.0----
2024-04-13 11:06 pmNNE 1.9 2.9----30.02- 74.7 82.0----
2024-04-13 11:00 pmNNE 1.9 2.9----30.02+0.01 74.8 82.2----
2024-04-13 10:54 pmNNE 1.9 1.9----30.02- 75.0 82.2----
2024-04-13 10:48 pmNNE 1.9 1.9----30.02- 74.8 82.2----
2024-04-13 10:42 pmNNE 1.9 2.9----30.03- 75.0 82.2----
2024-04-13 10:36 pmNNE 1.9 4.1----30.02- 75.4 82.2----
2024-04-13 10:30 pmNNE 1.9 4.1----30.03- 75.4 82.2----
2024-04-13 10:24 pmNNE 1.9 4.1----30.03- 75.6 82.2----
2024-04-13 10:18 pmNNE 1.9 2.9----30.03- 75.4 82.4----
2024-04-13 10:12 pmNNE 2.9 4.1----30.03- 75.6 82.4----
2024-04-13 10:06 pmNNE 2.9 4.1----30.03- 75.6 82.4----
2024-04-13 10:00 pmNNE 2.9 4.1----30.03+0.03 75.6 82.4----
2024-04-13 09:54 pmNNE 2.9 4.1----30.03- 75.6 82.4----
2024-04-13 09:48 pmNNE 1.9 4.1----30.03- 75.6 82.4----
2024-04-13 09:42 pmNNE 1.9 4.1----30.03- 75.6 82.6----
2024-04-13 09:36 pmNNE 2.9 2.9----30.03- 75.7 82.6----
2024-04-13 09:30 pmNNE 2.9 2.9----30.03- 75.6 82.6----
2024-04-13 09:24 pmNNE 1.9 4.1----30.03- 75.7 82.6----
2024-04-13 09:18 pm N 2.9 4.1----30.02- 75.7 82.6----
2024-04-13 09:12 pmNNE 2.9 4.1----30.02- 75.7 82.8----
2024-04-13 09:06 pmNNE 1.9 4.1----30.02- 75.7 82.8----
2024-04-13 09:00 pmNNE 2.9 4.1----30.02+0.03 75.7 82.8----
2024-04-13 08:54 pmNNE 2.9 4.1----30.02- 75.9 82.8----
2024-04-13 08:48 pmNNE 2.9 4.1----30.02- 76.1 82.8----
2024-04-13 08:42 pmNNE 2.9 4.1----30.02- 76.3 82.9----
2024-04-13 08:36 pmNNE 2.9 5.1----30.02- 76.3 83.3----
2024-04-13 08:30 pmNNE 2.9 4.1----30.02- 76.5 83.3----
2024-04-13 08:24 pmNNE 2.9 5.1----30.02- 76.8 83.3----
2024-04-13 08:18 pm-------30.02- 77.0 83.3----
2024-04-13 08:12 pm-------30.01- 77.4 83.1----
2024-04-13 08:06 pm-------30.01- 77.4 83.1----
2024-04-13 08:00 pm-------30.01+0.02 77.5 83.1----
2024-04-13 07:54 pm-------30.01- 78.1 83.1----
2024-04-13 07:48 pmNNE 2.9 5.1----30.01- 78.3 83.1----
2024-04-13 07:42 pmNNE 2.9 5.1----30.01- 78.8 83.1----
2024-04-13 07:36 pmNNE 4.1 6.0----30.01- 78.8 83.1----
2024-04-13 07:30 pmNNE 2.9 5.1----30.01- 79.0 83.1----
2024-04-13 07:24 pmNNE 4.1 7.0----30.01- 79.2 83.1----
2024-04-13 07:18 pm NE 2.9 6.0----30.01- 79.5 83.1----
2024-04-13 07:00 pmNNE 2.9 7.0----30.00+0.01 80.4 83.5----
2024-04-13 06:54 pmNNE 2.9 7.0----30.00- 80.6 83.7----
2024-04-13 06:48 pm NE 5.1 8.9----30.00- 81.0-----
2024-04-13 06:42 pmENE 6.0 11.1----30.00- 81.1-----
2024-04-13 06:36 pm E 8.0 11.1----30.00- 81.1-----
2024-04-13 06:30 pm E 7.0 11.1----30.00- 81.1 83.8----
2024-04-13 06:24 pm E 7.0 11.1----30.00- 81.1 84.0----
2024-04-13 06:18 pmENE 7.0 11.1----30.00- 81.3 84.0----
2024-04-13 06:12 pm E 6.0 9.9----30.00- 81.3 84.0----
2024-04-13 06:06 pm E 6.0 9.9----30.00- 81.5 84.2----
2024-04-13 06:00 pm E 7.0 12.0----30.00+0.00 81.7 84.0----
2024-04-13 05:54 pmENE 7.0 12.0----29.99- 81.7 84.2----
2024-04-13 05:48 pm E 7.0 11.1----29.99- 81.7 84.0----
2024-04-13 05:42 pm E 8.0 11.1----29.99- 81.9 84.0----
2024-04-13 05:36 pm E 8.0 12.0----29.99- 81.9 84.0----
2024-04-13 05:30 pmENE 7.0 12.0----29.99- 82.0 84.0----
2024-04-13 05:24 pm E 7.0 11.1----29.99- 82.0 84.0----
2024-04-13 05:18 pm E 7.0 11.1----29.99- 81.7 84.0----
2024-04-13 05:12 pmENE 6.0 12.0----29.99- 81.9 84.0----
2024-04-13 05:06 pm E 8.0 12.0----29.99- 81.9 84.0----
2024-04-13 05:00 pm E 8.0 12.0----29.99-0.02 82.0 84.0----
2024-04-13 04:54 pm E 8.9 13.0----29.99- 82.0 84.0----
2024-04-13 04:48 pm--------- 81.7 84.0----
2024-04-13 04:42 pm--------- 81.9 83.8----
2024-04-13 04:36 pm--------- 81.7 83.8----
2024-04-13 04:30 pm E 8.0 13.0----29.99-- 83.8----
2024-04-13 04:24 pm E 8.0 12.0----29.98-- 84.0----
2024-04-13 04:18 pm E 8.9 12.0----29.99- 82.0 83.8----
2024-04-13 04:12 pm E 8.9 13.0----29.99- 82.0 83.8----
2024-04-13 04:06 pm E 8.9 12.0----29.99- 82.0 83.7----
2024-04-13 04:00 pm E 8.9 13.0----29.99-0.04 82.0 83.7----
2024-04-13 03:54 pm E 8.9 13.0----29.99- 82.4 83.7----
2024-04-13 03:48 pm E 11.1 14.0----29.99- 82.2 83.7----
2024-04-13 03:42 pm E 9.9 13.0----29.99- 82.4 83.7----
2024-04-13 03:36 pm E 12.0 15.0----29.99- 82.2 83.7----
2024-04-13 03:30 pm E 13.0 15.0----29.99- 82.0 83.7----
2024-04-13 03:24 pm E 11.1 14.0----29.99- 82.6 83.7----
2024-04-13 03:18 pm E 9.9 13.0----29.99- 82.2 83.7----
2024-04-13 03:12 pm E 12.0 15.9----29.99- 82.0 83.7----
2024-04-13 03:06 pm E 8.9 13.0----30.00- 82.8 83.7----
2024-04-13 03:00 pm E 9.9 14.0----30.00-0.06 82.0 83.7----
2024-04-13 02:54 pm E 13.0 15.0----30.00- 81.7 83.7----
2024-04-13 02:48 pm E 12.0 15.9----30.00-- 83.7----
2024-04-13 02:42 pm E 11.1 15.0----30.00-- 83.7----
2024-04-13 02:36 pm E 11.1 15.0----30.00-- 83.7----
2024-04-13 02:30 pm E 12.0 15.0----30.00- 82.0 83.7----
2024-04-13 02:24 pm E 9.9 15.9----30.00- 82.0 83.7----
2024-04-13 02:18 pm-------30.00-- 83.7----
2024-04-13 02:12 pm-------30.00-- 83.7----
2024-04-13 02:06 pm-------30.01-- 83.7----
2024-04-13 02:00 pm E 13.0 17.1----30.01-0.06 81.9 83.7----
2024-04-13 01:54 pm E 15.0 17.1----30.01- 81.7 83.7----
2024-04-13 01:48 pm E 12.0 15.9----30.01-- 83.7----
2024-04-13 01:42 pm E 12.0 15.9----30.01-- 83.7----
2024-04-13 01:36 pm E 12.0 15.0----30.02-- 83.7----
2024-04-13 01:30 pm E 12.0 15.0----30.02- 82.2 83.5----
2024-04-13 01:24 pm E 11.1 15.9----30.02- 82.0 83.7----
2024-04-13 01:18 pm E 12.0 15.9----30.02- 82.0 83.7----
2024-04-13 01:12 pm E 12.0 15.9----30.03- 81.9 83.7----
2024-04-13 01:06 pm E 12.0 17.1----30.03- 82.2 83.7----
2024-04-13 01:00 pm E 14.0 17.1----30.03-0.04 81.9 83.7----
2024-04-13 12:54 pm E 12.0 15.0----30.03- 82.4 83.7----
2024-04-13 12:48 pm E 9.9 15.0----30.03- 82.2 83.7----
2024-04-13 12:42 pm E 13.0 15.9----30.04- 81.9 83.8----
2024-04-13 12:36 pm E 11.1 15.0----30.04- 82.2 83.8----
2024-04-13 12:30 pm E 12.0 15.0----30.04-- 83.8----
2024-04-13 12:24 pm E 12.0 15.9----30.05-- 83.7----
2024-04-13 12:18 pm E 12.0 15.9----30.05-- 83.7----
2024-04-13 12:12 pm E 12.0 17.1----30.05-- 83.5----
2024-04-13 12:06 pm E 12.0 17.1----30.06-- 83.3----
2024-04-13 12:00 pm E 12.0 15.9----30.06-0.01 82.4 83.1----
2024-04-13 11:54 am E 11.1 15.9----30.06- 82.2 83.1----
2024-04-13 11:48 am-------30.06-- 82.9----
2024-04-13 11:42 am-------30.06-- 82.9----
2024-04-13 11:36 am-------30.06-- 82.9----
2024-04-13 11:30 am E 11.1 15.9----30.06- 82.0 82.9----
2024-04-13 11:24 am E 7.0 14.0----30.07- 83.1 82.9----
2024-04-13 11:18 am E 8.0 15.9----30.07- 82.9 82.9----
2024-04-13 11:12 am E 8.0 13.0----30.07- 82.8 82.8----
2024-04-13 11:06 am E 8.9 15.9----30.07- 82.6 82.8----
2024-04-13 11:00 am E 8.9 14.0----30.07- 82.8 82.8----
2024-04-13 10:54 am E 8.9 14.0----30.07- 82.4 82.6----
2024-04-13 10:48 am E 8.0 15.9----30.07- 82.8 82.6----
2024-04-13 10:42 amENE 9.9 13.0----30.07- 82.8 82.4----
2024-04-13 10:36 amENE 9.9 15.9----30.07- 82.8 82.4----
2024-04-13 10:30 am E 8.9 14.0----30.07- 82.6 82.2----
2024-04-13 10:24 amENE 9.9 13.0----30.07- 82.6 82.2----
2024-04-13 10:18 amENE 9.9 15.0----30.07- 82.4 82.0----
2024-04-13 10:12 am E 13.0 17.1----30.07- 82.0 82.0----
2024-04-13 10:06 am E 14.0 17.1----30.07- 81.9 81.9----
2024-04-13 10:00 am E 13.0 17.1----30.07+0.02 82.0 81.9----
2024-04-13 09:54 am E 8.9 15.9----30.07- 82.0 81.7----
2024-04-13 09:48 amENE 8.0 14.0----30.07- 82.4 81.7----
2024-04-13 09:42 amENE 9.9 15.0----30.07- 82.2 81.5----
2024-04-13 09:36 am E 11.1 15.9----30.07- 81.5 81.5----
2024-04-13 09:30 amENE 9.9 15.9----30.07- 82.4 81.5----
2024-04-13 09:24 amENE 8.9 15.0----30.07- 82.4 81.3----
2024-04-13 09:18 amENE 8.9 15.0----30.07- 82.2 81.3----
2024-04-13 09:12 amENE 9.9 15.0----30.07- 82.4 81.1----
2024-04-13 09:06 amENE 9.9 15.0----30.07- 82.2 81.1----
2024-04-13 09:00 amENE 11.1 15.9----30.07+0.03- 81.0----
2024-04-13 08:54 am E 11.1 17.1----30.07-- 81.0----
2024-04-13 08:48 amENE 8.9 15.9----30.07- 81.0 81.0----
2024-04-13 08:42 amENE 9.9 14.0----30.06- 81.3 80.8----
2024-04-13 08:36 amENE 8.0 14.0----30.07- 81.3 80.6----
2024-04-13 08:30 amENE 7.0 11.1----30.06- 81.9 80.6----
2024-04-13 08:24 amENE 9.9 14.0----30.06- 81.0 80.6----
2024-04-13 08:18 amENE 7.0 12.0----30.06- 81.5 80.6----
2024-04-13 08:12 amENE 8.0 14.0----30.06- 81.1 80.6----
2024-04-13 08:06 amENE 8.9 15.9----30.06- 81.3 80.6----
2024-04-13 08:00 amENE 8.0 15.0------- 80.6----
2024-04-13 07:54 amENE 8.9 14.0------- 80.6----
2024-04-13 07:48 amENE 8.9 12.0----30.06-- 80.6----
2024-04-13 07:42 amENE 9.9 14.0----30.06-- 80.6----
2024-04-13 07:36 amENE 8.9 14.0----30.06-- 80.6----
2024-04-13 07:30 amENE 8.0 14.0----30.06-------
2024-04-13 07:24 amENE 9.9 15.9----30.06-------
2024-04-13 07:18 am-------30.06- 80.6 80.8----
2024-04-13 07:12 am-------30.05- 80.2 80.8----
2024-04-13 07:06 am-------30.05- 80.6 80.8----
2024-04-13 07:00 amENE 7.0 14.0----30.05+0.03 80.1 80.8----
2024-04-13 06:54 amENE 6.0 12.0----30.05- 79.9 80.8----
2024-04-13 06:48 amENE 7.0 14.0----30.05-- 80.8----
2024-04-13 06:42 am NE 6.0 14.0----30.05-- 80.8----
2024-04-13 06:36 am NE 6.0 11.1----30.05-- 80.8----
2024-04-13 06:30 amENE 8.0 15.0----30.05- 79.0-----
2024-04-13 06:24 am NE 6.0 9.9----30.05- 78.3-----
2024-04-13 06:18 am-------30.04- 77.9 80.8----
2024-04-13 06:12 am-------30.04- 78.1 80.8----
2024-04-13 06:06 am-------30.04- 78.1 80.8----
2024-04-13 06:00 am NE 6.0 8.9----30.04+0.01- 80.8----
2024-04-13 05:54 am NE 6.0 12.0----30.03-- 81.0----